Algona, IA

4:20 AM CDT on September 25, 2016 (GMT -0500)
Algona Municipal

Weather History for KAXA - February, 2011

Change the Weather History Date:

Wednesday, February 9, 2011

  Actual Average Record
Temperature  
Mean Temperature 1 °F -  
Max Temperature 6 °F 28 °F 50 °F (1999)
Min Temperature -4 °F 12 °F -14 °F (2001)
Degree Days  
Heating Degree Days 64    
Moisture  
Dew Point -8 °F    
Average Humidity 68    
Maximum Humidity 78    
Minimum Humidity 61    
Precipitation  
Precipitation 0.00 in - - ()
Sea Level Pressure  
Sea Level Pressure 30.28 in    
Wind  
Wind Speed 12 mph (WNW)    
Max Wind Speed 17 mph    
Max Gust Speed -    
Visibility 10 miles    
Events      
Averages and records for this station are not official NWS values.
T = Trace of Precipitation, MM = Missing Value Source: NWS Daily Summary

Daily Weather History Graph

Daily Weather History Graph

Search for Another Location

Airport or City:

Trip Planner

Search our weather history database for the weather conditions in past years. The results will help you decide how hot, cold, wet, or windy it might be!

Date:

Astronomy

Feb. 09, 2011 Rise Set
Actual Time 7:23 AM CST 5:40 PM CST
Civil Twilight 6:53 AM CST 6:09 PM CST
Nautical Twilight 6:20 AM CST 6:43 PM CST
Astronomical Twilight 5:46 AM CST 7:16 PM CST
Moon 9:49 AM CST (2/9) No Moon Set
Length of Visible Light 11h 16m
Length of Day
10h 16m
Waxing Crescent, 35% of the Moon is Illuminated
Feb 9
Waxing Crescent
Feb 11
First Quarter
Feb 18
Full
Feb 24
Last Quarter
Mar 4
New

Hourly Weather History & Observations

Time (CST) Temp. Windchill Dew Point Humidity Pressure Visibility Wind Dir Wind Speed Gust Speed Precip Events Conditions
12:15 AM -0.4 °F -20.5 °F -7.6 °F 72% 30.35 in 10.0 mi West 16.1 mph - N/A   Clear
12:35 AM -0.4 °F -19.2 °F -7.6 °F 72% 30.34 in 10.0 mi West 13.8 mph - N/A   Clear
12:55 AM -0.4 °F -21.2 °F -7.6 °F 72% 30.33 in 10.0 mi West 17.3 mph - N/A   Clear
1:15 AM -2.2 °F -23.5 °F -9.4 °F 71% 30.32 in 10.0 mi West 17.3 mph - N/A   Clear
1:35 AM -2.2 °F -22.9 °F -9.4 °F 71% 30.31 in 10.0 mi West 16.1 mph - N/A   Clear
1:55 AM -2.2 °F -19.9 °F -9.4 °F 71% 30.31 in 10.0 mi West 11.5 mph - N/A   Clear
2:15 AM -2.2 °F -19.9 °F -9.4 °F 71% 30.31 in 10.0 mi West 11.5 mph - N/A   Clear
2:35 AM -4.0 °F -21.2 °F -9.4 °F 78% 30.30 in 10.0 mi WNW 10.4 mph - N/A   Clear
2:55 AM -4.0 °F -22.1 °F -9.4 °F 78% 30.30 in 10.0 mi West 11.5 mph - N/A   Clear
3:15 AM -2.2 °F -21.5 °F -9.4 °F 71% 30.29 in 10.0 mi West 13.8 mph - N/A   Clear
3:35 AM -2.2 °F -21.5 °F -9.4 °F 71% 30.28 in 10.0 mi West 13.8 mph - N/A   Clear
3:55 AM -2.2 °F -19.9 °F -9.4 °F 71% 30.27 in 10.0 mi WNW 11.5 mph - N/A   Clear
4:15 AM -2.2 °F -19.9 °F -9.4 °F 71% 30.28 in 10.0 mi WNW 11.5 mph - N/A   Clear
4:35 AM -2.2 °F -18.9 °F -9.4 °F 71% 30.28 in 10.0 mi West 10.4 mph - N/A   Clear
4:55 AM -2.2 °F -19.9 °F -9.4 °F 71% 30.27 in 10.0 mi West 11.5 mph - N/A   Clear
5:15 AM -2.2 °F -18.9 °F -9.4 °F 71% 30.28 in 10.0 mi West 10.4 mph - N/A   Clear
5:35 AM -4.0 °F -20.2 °F -9.4 °F 78% 30.27 in 10.0 mi WNW 9.2 mph - N/A   Clear
5:55 AM -4.0 °F -19.0 °F -11.2 °F 71% 30.27 in 10.0 mi West 8.1 mph - N/A   Clear
6:15 AM -4.0 °F -17.8 °F -11.2 °F 71% 30.27 in 10.0 mi WNW 6.9 mph - N/A   Clear
6:35 AM -4.0 °F -19.0 °F -11.2 °F 71% 30.27 in 10.0 mi WNW 8.1 mph - N/A   Clear
6:55 AM -2.2 °F -19.9 °F -11.2 °F 66% 30.26 in 10.0 mi NW 11.5 mph - N/A   Clear
7:15 AM -4.0 °F -20.2 °F -13.0 °F 65% 30.27 in 10.0 mi WNW 9.2 mph - N/A   Clear
7:35 AM -4.0 °F -21.2 °F -11.2 °F 71% 30.27 in 10.0 mi WNW 10.4 mph - N/A   Clear
7:55 AM -4.0 °F -16.3 °F -13.0 °F 65% 30.29 in 10.0 mi West 5.8 mph - N/A   Clear
8:15 AM -4.0 °F -19.0 °F -13.0 °F 65% 30.29 in 10.0 mi West 8.1 mph - N/A   Clear
8:35 AM -4.0 °F -21.2 °F -13.0 °F 65% 30.30 in 10.0 mi West 10.4 mph - N/A   Clear
8:55 AM -2.2 °F -18.9 °F -11.2 °F 66% 30.31 in 10.0 mi WNW 10.4 mph - N/A   Clear
9:15 AM -0.4 °F -16.7 °F -9.4 °F 66% 30.31 in 10.0 mi WNW 10.4 mph - N/A   Clear
9:35 AM -0.4 °F -17.6 °F -9.4 °F 66% 30.30 in 10.0 mi WNW 11.5 mph - N/A   Clear
10:15 AM 1.4 °F -14.5 °F -7.6 °F 66% 30.31 in 10.0 mi West 10.4 mph - N/A   Clear
10:35 AM 1.4 °F -15.3 °F -7.6 °F 66% 30.31 in 10.0 mi WNW 11.5 mph - N/A   Clear
10:55 AM 3.2 °F -13.1 °F -7.6 °F 61% 30.32 in 10.0 mi WNW 11.5 mph - N/A   Clear
11:15 AM 3.2 °F -11.3 °F -7.6 °F 61% 30.33 in 10.0 mi WNW 9.2 mph - N/A   Clear
11:35 AM 3.2 °F -13.1 °F -5.8 °F 66% 30.33 in 10.0 mi West 11.5 mph - N/A   Clear
11:55 AM 3.2 °F -11.3 °F -5.8 °F 66% 30.32 in 10.0 mi WNW 9.2 mph - N/A   Clear
12:15 PM 5.0 °F -10.0 °F -5.8 °F 61% 30.31 in 10.0 mi WNW 10.4 mph - N/A   Clear
12:35 PM 5.0 °F -10.0 °F -5.8 °F 61% 30.30 in 10.0 mi WNW 10.4 mph - N/A   Clear
12:55 PM 5.0 °F -10.0 °F -5.8 °F 61% 30.30 in 10.0 mi WNW 10.4 mph - N/A   Clear
1:15 PM 5.0 °F -10.8 °F -5.8 °F 61% 30.28 in 10.0 mi NW 11.5 mph - N/A   Clear
1:35 PM 5.0 °F -10.0 °F -4.0 °F 66% 30.28 in 10.0 mi WNW 10.4 mph - N/A   Clear
1:55 PM 6.8 °F -7.8 °F -4.0 °F 61% 30.27 in 10.0 mi West 10.4 mph - N/A   Clear
2:15 PM 6.8 °F -8.6 °F -4.0 °F 61% 30.26 in 10.0 mi WNW 11.5 mph - N/A   Clear
2:35 PM 6.8 °F -8.6 °F -4.0 °F 61% 30.26 in 10.0 mi WNW 11.5 mph - N/A   Clear
2:55 PM 6.8 °F -6.9 °F -2.2 °F 67% 30.25 in 10.0 mi West 9.2 mph - N/A   Clear
3:15 PM 6.8 °F -8.6 °F -2.2 °F 67% 30.25 in 10.0 mi West 11.5 mph - N/A   Clear
3:35 PM 6.8 °F -8.6 °F -2.2 °F 67% 30.25 in 10.0 mi West 11.5 mph - N/A   Clear
3:55 PM 6.8 °F -10.7 °F -2.2 °F 67% 30.25 in 10.0 mi West 15.0 mph - N/A   Clear
4:15 PM 5.0 °F -13.6 °F -4.0 °F 66% 30.25 in 10.0 mi WNW 16.1 mph - N/A   Clear
4:35 PM 5.0 °F -11.6 °F -4.0 °F 66% 30.24 in 10.0 mi WNW 12.7 mph - N/A   Clear
4:55 PM 5.0 °F -11.6 °F -4.0 °F 66% 30.24 in 10.0 mi West 12.7 mph - N/A   Clear
5:15 PM 3.2 °F -13.1 °F -4.0 °F 72% 30.23 in 10.0 mi West 11.5 mph - N/A   Clear
5:35 PM 3.2 °F -12.2 °F -5.8 °F 66% 30.23 in 10.0 mi West 10.4 mph - N/A   Clear
5:55 PM 3.2 °F -11.3 °F -5.8 °F 66% 30.23 in 10.0 mi West 9.2 mph - N/A   Clear
6:15 PM 1.4 °F -13.5 °F -5.8 °F 72% 30.23 in 10.0 mi West 9.2 mph - N/A   Clear
6:35 PM 1.4 °F -13.5 °F -5.8 °F 72% 30.22 in 10.0 mi West 9.2 mph - N/A   Clear
6:55 PM 1.4 °F -11.3 °F -5.8 °F 72% 30.22 in 10.0 mi West 6.9 mph - N/A   Clear
7:15 PM -0.4 °F -12.0 °F -7.6 °F 72% 30.22 in 10.0 mi WSW 5.8 mph - N/A   Clear
7:35 PM -0.4 °F -14.7 °F -7.6 °F 72% 30.21 in 10.0 mi WSW 8.1 mph - N/A   Clear
7:55 PM -0.4 °F -15.7 °F -7.6 °F 72% 30.21 in 10.0 mi WSW 9.2 mph - N/A   Clear
8:15 PM -0.4 °F -12.0 °F -7.6 °F 72% 30.20 in 10.0 mi WSW 5.8 mph - N/A   Clear
8:35 PM -0.4 °F -15.7 °F -7.6 °F 72% 30.20 in 10.0 mi WSW 9.2 mph - N/A   Clear
8:55 PM -2.2 °F -16.8 °F -7.6 °F 78% 30.20 in 10.0 mi WSW 8.1 mph - N/A   Clear
9:15 PM -2.2 °F -15.6 °F -7.6 °F 78% 30.19 in 10.0 mi WSW 6.9 mph - N/A   Clear
9:35 PM -2.2 °F -16.8 °F -7.6 °F 78% 30.18 in 10.0 mi WSW 8.1 mph - N/A   Clear
9:55 PM -0.4 °F -15.7 °F -7.6 °F 72% 30.17 in 10.0 mi WSW 9.2 mph - N/A   Clear
10:15 PM -0.4 °F -16.7 °F -7.6 °F 72% 30.16 in 10.0 mi WSW 10.4 mph - N/A   Clear
10:35 PM -0.4 °F -14.7 °F -7.6 °F 72% 30.16 in 10.0 mi WSW 8.1 mph - N/A   Clear
10:55 PM -0.4 °F -13.4 °F -5.8 °F 78% 30.16 in 10.0 mi WSW 6.9 mph - N/A   Clear
11:15 PM -0.4 °F -13.4 °F -5.8 °F 78% 30.16 in 10.0 mi SW 6.9 mph - N/A   Clear
11:35 PM -4.0 °F -14.6 °F -9.4 °F 78% 30.15 in 10.0 mi SSW 4.6 mph - N/A   Clear
11:55 PM -2.2 °F -20.7 °F -7.6 °F 78% 30.15 in 10.0 mi SW 12.7 mph - N/A   Clear